Weather observations for the past three days for
Nuevo Laredo International
Imperial (Metric)
Date Time (cdt) Wind (mph) Vis. (mi.) Weather Sky Cond. Temperature (ºF) Relative Humidity Wind Chill (°F) Heat Index (°F) Pressure Precipitation (in)
Air Dwpt 6 hour altimeter (in) sea level (mb) 1 hr 3 hr 6 hr
Max. Min.
04 19:40 SE 13 10.00 Overcast OVC200 84.2 66.2 55% 87 29.77 0.0
04 18:40 SE 13 10.00 Mostly Cloudy BKN200 86 66.2 52% 88 29.77 1006.9
04 17:40 SE 14 10.00 Mostly Cloudy BKN200 86 66.2 52% 88 29.79 0.0
04 16:40 SE 13 10.00 Overcast OVC200 86 66.2 52% 88 29.81 0.0
04 15:40 SE 13 10.00 Overcast OVC040 84.2 66.2 55% 87 29.84 1009.0
04 14:40 SE 16 10.00 Overcast OVC025 82.4 64.4 55% 84 29.87 0.0
04 13:40 SE 14 10.00 Overcast OVC025 80.6 64.4 58% 82 29.89 0.0
04 12:40 SE 13 10.00 Overcast OVC025 78.8 64.4 61% 81 29.91 1011.4
04 11:40 SE 13 10.00 Overcast OVC020 78.8 64.4 61% 81 29.93 0.0
04 10:40 SE 14 10.00 Mostly Cloudy BKN020 BKN200 77 64.4 65% 79 29.93 0.0
04 09:40 SE 13 10.00 Mostly Cloudy BKN020 BKN200 73.4 64.4 74% 29.94 1012.5
04 08:43 SE 13 7.00 Partly Cloudy SCT020 SCT200 71.6 64.4 78% 29.94 0.0
04 06:00 SE 8 7.00 Partly Cloudy SCT080 66.2 60.8 83% 29.93 0.0
03 20:40 E 12 10.00 Partly Cloudy SCT200 78.8 53.6 42% 79 30 0.0
03 19:41 E 12 10.00 Partly Cloudy SCT200 80.6 53.6 39% 80 29.99 0.0
03 18:42 E 15 10.00 Clear SKC 82.4 51.8 35% 81 29.99 1014.3
03 17:40 SE 10 10.00 Clear SKC 84.2 51.8 33% 82 29.99 0.0
03 16:40 SE 8 10.00 Clear SKC 84.2 51.8 33% 82 30.02 0.0
03 15:40 E 12 10.00 Clear SKC 84.2 51.8 33% 82 30.08 1017.5
03 14:42 E 13 10.00 Clear SKC 82.4 50 32% 81 30.1 0.0
03 13:40 SE 6 10.00 Clear SKC 78.8 51.8 39% 79 30.14 0.0
03 12:40 SE 8 10.00 Clear SKC 78.8 51.8 39% 79 30.17 1020.6
03 11:40 SE 7 10.00 Clear SKC 75.2 51.8 44% 78 30.2 0.0
03 10:41 E 7 10.00 Clear SKC 73.4 53.6 50% 30.21 0.0
03 09:40 SE 7 10.00 Clear SKC 69.8 53.6 57% 30.21 1021.7
03 08:40 Calm 10.00 Clear SKC 66.2 55.4 68% 30.2 0.0
03 06:56 Calm 7.00 Clear SKC 55.4 51.8 88% 30.16 1020.3
02 19:40 NE 8 10.00 Partly Cloudy SCT080 75.2 46.4 36% 77 30.08 0.0
02 18:40 NE 7 10.00 Partly Cloudy FEW035 SCT080 77 46.4 34% 78 30.08 1017.5
02 17:41 E 8 10.00 Partly Cloudy SCT035 SCT080 77 48.2 36% 78 30.08 0.0
02 16:41 NE 9 10.00 Partly Cloudy SCT035 SCT080 77 48.2 36% 78 30.09 0.0
02 15:40 N 13 10.00 Partly Cloudy SCT035 SCT080 75.2 48.2 39% 77 30.11 1018.5
02 14:40 NE 6 10.00 Partly Cloudy SCT035 SCT080 73.4 50 44% 30.14 0.0
02 13:40 NE 7 10.00 Partly Cloudy FEW040 SCT070 71.6 51.8 50% 30.15 0.0
02 12:40 N 8 10.00 Partly Cloudy SCT070 68 51.8 56% 30.18 1020.7
02 11:41 N 7 10.00 Partly Cloudy SCT070 66.2 51.8 60% 30.19 0.0
02 10:40 NW 7 10.00 Partly Cloudy SCT060 64.4 50 60% 30.18 0.0
02 09:40 N 10 10.00 Partly Cloudy SCT070 60.8 50 68% 30.17 1020.6
02 08:40 NW 8 10.00 Mostly Cloudy BKN040 59 50 72% 30.16 0.0
02 07:01 NW 10 8.00 Mostly Cloudy BKN050 59 50 72% 30.1 1017.8
Date Time (cdt) Wind (mph) Vis. (mi.) Weather Sky Cond. Air Dwpt Max. Min. Relative Humidity Wind Chill (°F) Heat Index (°F) altimeter (in) sea level (mb) 1 hr 3 hr 6 hr
6 hour
Temperature (ºF) Pressure Precipitation (in)